Flag for U.S.A. Weather past 2 weeks in Rapid City, South Dakota, U.S.A.

Now
68 °F

Clear.


Feels Like: 68 °F
Forecast: 61 / 86 °F
Wind: 2 mph from North

Location: Ellsworth Air Force Base

Current Time: Jul 31, 2014 at 11:10:55 PM

Latest Report: Jul 31, 2014 at 10:58 PM


Visibility: 10 mi

Pressure: 30.05 "Hg

Humidity: 49%

Dew point: 49 °F

Location of Rapid CityLocation

Historic Weather in Rapid City — Graph

°F

Rapid City temperature yesterday

Maximum temperature yesterday: 85 °F (at 3:58 PM)
Minimum temperature yesterday: 55 °F (at 5:58 AM)
Average temperature yesterday: 71 °F

Past Weeks' High & Low Weather Summary

 TemperatureHumidityPressure
High97 °F (Jul 21, 3:58 PM)94% (Jul 17, 4:58 AM)30.31 "Hg (Jul 17, 4:58 AM)
Low54 °F (Jul 27, 5:58 AM)18% (Jul 21, 3:58 PM)29.57 "Hg (Jul 24, 8:58 PM)
Average73 °F57%29.98 "Hg
* Reported Jul 16 9:58 PM — Jul 31 9:58 PM, Rapid City, Weather by CustomWeather, © 2014

Note: Actual official high and low records may vary slightly from our data, if they occured in-between our weather recording intervals... More about our weather records

Advertising

Rapid City weather history for previous 24 hours

 ConditionsComfort  
Time TempWeatherWind HumidityBarometerVisibility
9:58 PM
Jul 31
72 °FClear.8 mph45%30.06 "Hg10 mi
9:02 PM77 °FThundershowers. Broken clouds.18 mph36%30.11 "Hg7 mi
8:58 PM77 °FThunderstorms. Partly sunny.23 mph39%30.08 "Hg4 mi
8:01 PM81 °FThundershowers. Partly sunny.6 mph39%30.10 "Hg10 mi
7:58 PM82 °FPassing clouds.5 mph33%30.04 "Hg10 mi
6:58 PM83 °FScattered clouds.8 mph35%30.04 "Hg10 mi
5:58 PM85 °FScattered clouds.9 mph29%30.05 "Hg10 mi
4:58 PM87 °FSunny.7 mph23%30.05 "Hg10 mi
3:58 PM87 °FSunny.8 mph23%30.06 "Hg10 mi
2:58 PM86 °FSunny.No wind26%30.07 "Hg10 mi
1:58 PM83 °FSunny.2 mph29%30.08 "Hg10 mi
12:58 PM82 °FSunny.3 mph32%30.10 "Hg10 mi
11:58 AM80 °FSunny.1 mph35%30.11 "Hg10 mi
10:58 AM78 °FSunny.5 mph38%30.12 "Hg10 mi
9:58 AM77 °FSunny.9 mph44%30.14 "Hg10 mi
8:58 AM74 °FSunny.8 mph45%30.12 "Hg10 mi
7:58 AM68 °FSunny.3 mph56%30.11 "Hg10 mi
6:58 AM61 °FSunny.1 mph67%30.11 "Hg10 mi
5:58 AM55 °FClear.6 mph78%30.11 "Hg10 mi
4:58 AM57 °FClear.6 mph73%30.11 "Hg10 mi
3:58 AM57 °FClear.7 mph74%30.10 "Hg10 mi
2:58 AM56 °FClear.8 mph76%30.10 "Hg10 mi
1:58 AM58 °FClear.9 mph75%30.10 "Hg10 mi
12:58 AM63 °FClear.6 mph63%30.11 "Hg10 mi
11:58 PM
Jul 30
64 °FClear.8 mph61%30.12 "Hg10 mi
Weather by CustomWeather, © 2014

See weather overviewHow to use our weather pages